This is the latest recevied weather packets stored in our database for station/object 4S6DRJ-13. If no packets are shown the sender has not sent any weather packets the latest 10 day(s).
| Time | Temp. | Humidity | Pressure | Rain* | Wind** | Luminosity | Snow |
|---|---|---|---|---|---|---|---|
| 1788056356 | 28.89° C | 80% | 1010.3 hPa | 0 mm | 1.34 m/s, 15° | 247 W/m² | - |
| 1788056295 | 28.89° C | 80% | 1010.2 hPa | 0 mm | 0.89 m/s, 301° | 238 W/m² | - |
| 1788056234 | 28.89° C | 80% | 1010.1 hPa | 0 mm | 0.89 m/s, 229° | 193 W/m² | - |
| 1788056173 | 28.89° C | 80% | 1010.2 hPa | 0 mm | 1.79 m/s, 219° | 168 W/m² | - |
| 1788056112 | 28.89° C | 81% | 1010.2 hPa | 0 mm | 0 m/s | 161 W/m² | - |
| 1788056051 | 28.89° C | 81% | 1010.3 hPa | 0 mm | 0 m/s | 279 W/m² | - |
| 1788055990 | 28.89° C | 81% | 1010.3 hPa | 0 mm | 0.45 m/s, 268° | 266 W/m² | - |
| 1788055929 | 28.89° C | 80% | 1010.1 hPa | 0 mm | 2.24 m/s, 258° | 222 W/m² | - |
| 1788055868 | 28.89° C | 80% | 1010.3 hPa | 0 mm | 1.79 m/s, 204° | 202 W/m² | - |
| 1788055807 | 28.89° C | 80% | 1010.2 hPa | 0 mm | 2.24 m/s, 228° | 172 W/m² | - |
| 1788055746 | 28.89° C | 81% | 1010.1 hPa | 0 mm | 0.45 m/s, 240° | 165 W/m² | - |
| 1788055685 | 28.89° C | 80% | 1010.3 hPa | 0 mm | 2.68 m/s, 193° | 195 W/m² | - |
| 1788055624 | 28.89° C | 81% | 1010.2 hPa | 0 mm | 1.79 m/s, 303° | 201 W/m² | - |
| 1788055563 | 28.89° C | 81% | 1010.1 hPa | 0 mm | 2.24 m/s, 155° | 185 W/m² | - |
| 1788055502 | 28.89° C | 81% | 1010.1 hPa | 0 mm | 1.79 m/s, 219° | 288 W/m² | - |
| 1788055441 | 28.89° C | 81% | 1010 hPa | 0 mm | 1.79 m/s, 147° | 294 W/m² | - |
| 1788055381 | 28.89° C | 81% | 1010 hPa | 0 mm | 1.79 m/s, 181° | 161 W/m² | - |
| 1788055319 | 28.89° C | 81% | 1009.9 hPa | 0 mm | 2.24 m/s, 252° | 262 W/m² | - |
| 1788055259 | 28.89° C | 81% | 1010 hPa | 0 mm | 1.34 m/s, 216° | 256 W/m² | - |
| 1788055197 | 28.89° C | 81% | 1009.9 hPa | 0 mm | 1.34 m/s, 211° | 261 W/m² | - |
| 1788055136 | 28.89° C | 81% | 1009.8 hPa | 0 mm | 2.24 m/s, 252° | 264 W/m² | - |
| 1788055075 | 28.89° C | 81% | 1009.8 hPa | 0 mm | 2.68 m/s, 331° | 260 W/m² | - |
| 1788055014 | 28.89° C | 81% | 1009.9 hPa | 0 mm | 0.89 m/s, 206° | 209 W/m² | - |
| 1788054953 | 28.89° C | 81% | 1010 hPa | 0 mm | 0.89 m/s, 248° | 220 W/m² | - |
| 1788054892 | 28.89° C | 81% | 1009.9 hPa | 0 mm | 0.89 m/s, 250° | 202 W/m² | - |
* Rain latest hour (hover to see other rain measurements)
** Current wind speed in m/s (hover to see current wind gust speed)